AAUSAT 5

Last updated on Tue Mar 15 2016 17:37:28 GMT+0000 (Coordinated Universal Time)

1 40948U 98067GZ 16075.45781431 .13016099 12363-4 13142-2 0 9998 2 40948 51.6105 144.8409 0002621 342.4028 18.3599 16.37207905 25449

Satellite not in orbit